• In Czech Republic
  • List of Countries
  • For 7 days
  • Water Temperature
  • Satellite Maps
  • Weather Map
  • Weather Widgets
  • user-avatar
    Login

    Hourly Weather Kalgoorlie

    Today, 23 May, Tuesday

    Time Temperature Precipitation Wind Pressure Humidity
    00:00 +9°C° 0 mm 2 mps 734 mmHg 68%
    01:00 +9°C° 0 mm 2 mps 734 mmHg 69%
    02:00 +9°C° 0 mm 2 mps 734 mmHg 71%
    03:00 +9°C° 0 mm 2 mps 734 mmHg 72%
    04:00 +8°C° 0 mm 3 mps 734 mmHg 74%
    05:00 +8°C° 0 mm 3 mps 734 mmHg 75%
    06:00 +9°C° 0 mm 3 mps 734 mmHg 73%
    07:00 +10°C° 0 mm 3 mps 735 mmHg 71%
    08:00 +10°C° 0 mm 3 mps 735 mmHg 69%
    09:00 +12°C° 0 mm 3 mps 735 mmHg 63%
    10:00 +14°C° 0 mm 3 mps 735 mmHg 58%
    11:00 +17°C° 0 mm 3 mps 735 mmHg 52%
    12:00 +18°C° 0 mm 3 mps 734 mmHg 50%
    13:00 +18°C° 0 mm 3 mps 734 mmHg 48%
    14:00 +19°C° 0 mm 2 mps 733 mmHg 45%
    15:00 +18°C° 0 mm 2 mps 733 mmHg 50%
    16:00 +17°C° 0 mm 2 mps 733 mmHg 54%
    17:00 +16°C° 0 mm 1 mps 733 mmHg 59%
    18:00 +15°C° 0 mm 2 mps 734 mmHg 62%
    19:00 +14°C° 0 mm 2 mps 734 mmHg 65%
    20:00 +14°C° 0 mm 2 mps 734 mmHg 69%
    21:00 +13°C° 0 mm 2 mps 734 mmHg 72%
    22:00 +13°C° 0 mm 2 mps 734 mmHg 75%
    23:00 +12°C° 0 mm 1 mps 734 mmHg 78%

    Tomorrow, 24 May, Wednesday

    Time Temperature Precipitation Wind Pressure Humidity
    00:00 +12°C° 0 mm 1 mps 734 mmHg 79%
    01:00 +12°C° 0 mm 1 mps 734 mmHg 81%
    02:00 +11°C° 0 mm 1 mps 734 mmHg 82%
    03:00 +11°C° 0 mm 1 mps 734 mmHg 83%
    04:00 +11°C° 0 mm 1 mps 734 mmHg 84%
    05:00 +10°C° 0 mm 2 mps 733 mmHg 84%
    06:00 +12°C° 0 mm 2 mps 734 mmHg 79%
    07:00 +12°C° 0 mm 2 mps 734 mmHg 75%
    08:00 +13°C° 0 mm 2 mps 734 mmHg 70%
    09:00 +15°C° 0 mm 2 mps 734 mmHg 61%
    10:00 +17°C° 0 mm 3 mps 734 mmHg 52%
    11:00 +18°C° 0 mm 3 mps 734 mmHg 43%
    12:00 +19°C° 0 mm 3 mps 734 mmHg 40%
    13:00 +20°C° 0 mm 3 mps 733 mmHg 37%
    14:00 +20°C° 0 mm 3 mps 732 mmHg 34%
    15:00 +19°C° 0 mm 2 mps 732 mmHg 38%
    16:00 +18°C° 0 mm 1 mps 732 mmHg 42%
    17:00 +16°C° 0 mm 1 mps 732 mmHg 46%
    18:00 +15°C° 0 mm 1 mps 732 mmHg 48%
    19:00 +14°C° 0 mm 0 mps 733 mmHg 50%
    20:00 +13°C° 0 mm 0 mps 733 mmHg 52%
    21:00 +14°C° 0 mm 1 mps 733 mmHg 53%
    22:00 +13°C° 0 mm 1 mps 733 mmHg 53%
    23:00 +13°C° 0 mm 1 mps 733 mmHg 54%

    Day after tomorrow, 25 May, Thursday

    Time Temperature Precipitation Wind Pressure Humidity
    00:00 +13°C° 0 mm 2 mps 733 mmHg 56%
    01:00 +12°C° 0 mm 2 mps 733 mmHg 58%
    02:00 +12°C° 0 mm 2 mps 733 mmHg 60%
    03:00 +12°C° 0 mm 2 mps 733 mmHg 61%
    04:00 +10°C° 0 mm 2 mps 733 mmHg 62%
    05:00 +10°C° 0 mm 2 mps 733 mmHg 64%
    06:00 +12°C° 0 mm 2 mps 733 mmHg 62%
    07:00 +12°C° 0 mm 2 mps 734 mmHg 60%
    08:00 +13°C° 0 mm 2 mps 734 mmHg 58%
    09:00 +14°C° 0 mm 3 mps 734 mmHg 50%
    10:00 +17°C° 0 mm 3 mps 734 mmHg 42%
    11:00 +19°C° 0 mm 3 mps 734 mmHg 35%
    12:00 +20°C° 0 mm 3 mps 733 mmHg 32%
    13:00 +21°C° 0 mm 3 mps 733 mmHg 29%
    14:00 +21°C° 0 mm 2 mps 732 mmHg 26%
    15:00 +20°C° 0 mm 2 mps 732 mmHg 29%
    16:00 +18°C° 0 mm 2 mps 732 mmHg 33%
    17:00 +18°C° 0 mm 1 mps 732 mmHg 36%
    18:00 +16°C° 0 mm 2 mps 732 mmHg 36%
    19:00 +16°C° 0 mm 2 mps 732 mmHg 36%
    20:00 +16°C° 0 mm 3 mps 732 mmHg 36%
    21:00 +14°C° 0 mm 3 mps 732 mmHg 37%
    22:00 +14°C° 0 mm 3 mps 732 mmHg 37%
    23:00 +14°C° 0 mm 4 mps 732 mmHg 38%

    26 May, Friday

    Time Temperature Precipitation Wind Pressure Humidity
    00:00 +13°C° 0 mm 4 mps 731 mmHg 39%
    01:00 +13°C° 0 mm 4 mps 731 mmHg 40%
    02:00 +13°C° 0 mm 4 mps 730 mmHg 41%
    03:00 +12°C° 0 mm 4 mps 730 mmHg 42%
    04:00 +12°C° 0 mm 4 mps 730 mmHg 43%
    05:00 +12°C° 0 mm 4 mps 730 mmHg 44%
    06:00 +12°C° 0 mm 3 mps 731 mmHg 44%
    07:00 +13°C° 0 mm 3 mps 731 mmHg 43%
    08:00 +13°C° 0 mm 3 mps 731 mmHg 43%
    09:00 +17°C° 0 mm 4 mps 731 mmHg 39%
    10:00 +19°C° 0 mm 4 mps 731 mmHg 35%
    11:00 +21°C° 0 mm 5 mps 731 mmHg 31%
    12:00 +22°C° 0 mm 5 mps 730 mmHg 30%
    13:00 +22°C° 0 mm 5 mps 730 mmHg 28%
    14:00 +23°C° 0 mm 5 mps 729 mmHg 27%
    15:00 +22°C° 0 mm 4 mps 729 mmHg 30%
    16:00 +20°C° 0 mm 4 mps 729 mmHg 32%
    17:00 +19°C° 0 mm 3 mps 730 mmHg 35%
    18:00 +18°C° 0 mm 4 mps 730 mmHg 40%
    19:00 +17°C° 0 mm 4 mps 731 mmHg 46%
    20:00 +15°C° 0 mm 4 mps 731 mmHg 51%
    21:00 +14°C° 0 mm 4 mps 731 mmHg 62%
    22:00 +13°C° 0 mm 3 mps 731 mmHg 72%
    23:00 +13°C° 0 mm 3 mps 731 mmHg 82%

    27 May, Saturday

    Time Temperature Precipitation Wind Pressure Humidity
    00:00 +12°C° 0 mm 3 mps 731 mmHg 87%
    01:00 +12°C° 0 mm 4 mps 731 mmHg 91%
    02:00 +11°C° 0 mm 4 mps 731 mmHg 95%
    03:00 +11°C° 0 mm 4 mps 731 mmHg 94%
    04:00 +11°C° 0 mm 4 mps 732 mmHg 93%
    05:00 +10°C° 0 mm 4 mps 732 mmHg 92%
    06:00 +11°C° 0 mm 4 mps 732 mmHg 89%
    07:00 +11°C° 0 mm 4 mps 733 mmHg 86%
    08:00 +10°C° 0 mm 5 mps 733 mmHg 83%
    09:00 +12°C° 0 mm 4 mps 733 mmHg 76%
    10:00 +14°C° 0 mm 4 mps 733 mmHg 69%
    11:00 +15°C° 0 mm 4 mps 733 mmHg 61%
    12:00 +15°C° 0 mm 4 mps 733 mmHg 59%
    13:00 +17°C° 0 mm 3 mps 732 mmHg 56%
    14:00 +17°C° 0 mm 3 mps 732 mmHg 54%
    15:00 +17°C° 0 mm 3 mps 732 mmHg 55%
    16:00 +16°C° 0 mm 3 mps 733 mmHg 56%
    17:00 +16°C° 0 mm 3 mps 733 mmHg 57%
    18:00 +14°C° 0 mm 3 mps 733 mmHg 57%
    19:00 +14°C° 0 mm 4 mps 734 mmHg 56%
    20:00 +14°C° 0 mm 4 mps 734 mmHg 55%
    21:00 +13°C° 0 mm 4 mps 734 mmHg 57%
    22:00 +12°C° 0 mm 4 mps 734 mmHg 58%
    23:00 +10°C° 0 mm 5 mps 734 mmHg 59%

    28 May, Sunday

    Time Temperature Precipitation Wind Pressure Humidity
    00:00 +11°C° 0 mm 4 mps 734 mmHg 63%
    01:00 +10°C° 0 mm 4 mps 734 mmHg 66%
    02:00 +8°C° 0 mm 4 mps 734 mmHg 70%
    03:00 +9°C° 0 mm 3 mps 734 mmHg 71%
    04:00 +9°C° 0 mm 3 mps 734 mmHg 73%
    05:00 +8°C° 0 mm 3 mps 734 mmHg 74%
    06:00 +9°C° 0 mm 3 mps 735 mmHg 72%
    07:00 +9°C° 0 mm 3 mps 735 mmHg 70%
    08:00 +9°C° 0 mm 3 mps 736 mmHg 68%
    09:00 +11°C° 0 mm 3 mps 735 mmHg 62%
    10:00 +13°C° 0 mm 3 mps 735 mmHg 56%
    11:00 +14°C° 0 mm 3 mps 735 mmHg 50%
    12:00 +16°C° 0 mm 3 mps 735 mmHg 49%
    13:00 +17°C° 0 mm 2 mps 734 mmHg 47%
    14:00 +17°C° 0 mm 2 mps 734 mmHg 45%
    15:00 +16°C° 0 mm 2 mps 734 mmHg 49%
    16:00 +15°C° 0 mm 2 mps 734 mmHg 52%
    17:00 +15°C° 0 mm 2 mps 734 mmHg 55%
    18:00 +14°C° 0 mm 2 mps 735 mmHg 56%
    19:00 +12°C° 0 mm 3 mps 735 mmHg 58%
    20:00 +12°C° 0 mm 3 mps 735 mmHg 59%
    21:00 +11°C° 0 mm 3 mps 735 mmHg 60%
    22:00 +11°C° 0 mm 3 mps 735 mmHg 61%
    23:00 +10°C° 0 mm 3 mps 735 mmHg 62%
    Show more